period_start,C,m1,H,J0,J1,J2,J3,J4,J5,JA,JB,JC,JD,JJ,JK,JN,#
2014-12-03 00:03:13,0.06,2.23,0.00,20.16,24.97,28.05,4.89,26.37,1035.66,2040.99,2605.11,2748.02,2948.94,349.80,357.09,22.05,0000 0000 0000 0000 000000
2014-12-03 00:08:14,0.10,2.23,0.00,20.16,24.95,28.02,4.88,26.34,1035.66,2040.99,2604.32,2747.48,2948.13,349.38,356.93,22.08,0000 0000 0000 0000 000000
2014-12-03 00:13:15,0.06,2.23,0.00,20.14,24.95,27.99,4.91,26.42,1035.66,2040.99,2603.62,2746.98,2947.61,349.60,357.51,22.11,0000 0000 0000 0000 000000
2014-12-03 00:18:16,0.09,2.24,0.00,20.11,24.92,28.02,4.94,26.51,1035.66,2040.99,2602.81,2746.15,2946.96,349.95,357.26,22.14,0000 0000 0000 0000 000000
2014-12-03 00:23:17,0.08,2.24,0.00,20.10,24.92,28.02,4.88,26.43,1035.66,2040.99,2602.00,2745.74,2946.15,349.71,357.65,22.17,0000 0000 0000 0000 000000
2014-12-03 00:28:18,0.09,2.24,0.00,20.11,24.91,27.99,4.90,26.49,1035.58,2040.99,2601.05,2745.02,2945.47,349.60,357.18,22.20,0000 0000 0000 0000 000000
2014-12-03 00:33:20,0.09,2.24,0.00,20.10,24.90,27.95,4.95,26.48,1035.57,2040.99,2600.09,2744.33,2944.93,350.15,357.74,22.23,0000 0000 0000 0000 000000
2014-12-03 00:38:21,0.07,2.25,0.00,20.08,24.88,27.99,4.89,26.72,1035.55,2040.99,2599.46,2743.89,2944.10,349.54,357.06,22.26,0000 0000 0000 0000 000000
2014-12-03 00:43:22,0.11,2.25,0.00,20.04,24.87,27.95,4.98,26.49,1035.62,2040.99,2598.56,2743.08,2943.48,350.18,357.82,22.29,0000 0000 0000 0000 000000
2014-12-03 00:48:23,0.09,2.25,0.00,20.05,24.86,27.92,4.92,26.49,1035.63,2041.00,2597.53,2742.47,2942.88,349.79,357.54,22.32,0000 0000 0000 0000 000000
2014-12-03 00:53:25,0.05,2.25,0.00,20.08,24.85,27.90,4.96,26.40,1035.62,2041.00,2596.81,2741.95,2942.06,350.33,357.83,22.35,0000 0000 0000 0000 000000
2014-12-03 00:58:26,0.11,2.26,0.00,20.06,24.84,27.92,4.94,26.41,1035.60,2041.01,2595.98,2741.14,2941.36,349.74,357.38,22.38,0000 0000 0000 0000 000000
2014-12-03 01:03:27,0.09,2.26,0.00,20.05,24.82,27.90,4.90,26.38,1035.49,2041.00,2594.98,2740.64,2940.77,349.76,357.53,22.41,0000 0000 0000 0000 000000
2014-12-03 01:08:28,0.08,2.26,0.00,20.04,24.81,27.91,4.96,26.52,1035.22,2041.02,2594.01,2739.98,2940.02,350.58,358.32,22.44,0000 0000 0000 0000 000000
2014-12-03 01:13:29,0.12,2.27,0.00,20.03,24.80,27.90,4.84,26.37,1035.17,2041.04,2593.11,2739.19,2939.46,349.40,357.07,22.47,0000 0000 0000 0000 000000
2014-12-03 01:18:31,0.08,2.27,0.00,20.02,24.80,27.89,4.92,26.45,1035.17,2041.06,2592.39,2738.79,2938.81,350.28,357.85,22.49,0000 0000 0000 0000 000000
2014-12-03 01:23:32,0.10,2.27,0.00,20.01,24.78,27.87,4.99,26.52,1035.17,2041.06,2591.49,2738.03,2938.02,350.80,358.43,22.52,0000 0000 0000 0000 000000
2014-12-03 01:28:34,0.12,2.27,0.00,20.00,24.77,27.88,4.97,26.48,1035.17,2041.09,2590.61,2737.41,2937.28,350.76,358.32,22.55,0000 0000 0000 0000 000000
2014-12-03 01:33:35,0.04,2.28,0.00,19.98,24.76,27.88,4.95,26.45,1035.18,2041.19,2589.93,2736.98,2936.89,349.92,357.57,22.58,0000 0000 0000 0000 000000
2014-12-03 01:38:36,0.11,2.28,0.00,19.90,24.75,27.84,4.95,26.86,1035.11,2041.25,2589.02,2736.19,2936.05,350.57,358.32,22.61,0000 0000 0000 0000 000000
2014-12-03 01:43:37,0.15,2.28,0.00,19.93,24.73,27.83,4.92,26.67,1035.16,2041.34,2588.08,2735.80,2935.19,349.68,357.68,22.64,0000 0000 0000 0000 000000
2014-12-03 01:48:39,0.12,2.29,0.00,19.93,24.72,27.81,4.96,26.61,1035.17,2041.70,2587.44,2735.05,2934.74,349.88,357.58,22.67,0000 0000 0000 0000 000000
2014-12-03 01:53:40,0.13,2.29,0.00,19.93,24.72,27.84,4.97,26.69,1035.12,2041.91,2586.59,2734.49,2934.04,350.13,357.92,22.70,0000 0000 0000 0000 000000
2014-12-03 01:58:41,0.06,2.29,0.00,19.93,24.70,27.81,4.94,26.51,1035.16,2041.94,2585.76,2733.97,2933.35,349.87,357.60,22.73,0000 0000 0000 0000 000000
2014-12-03 02:03:42,0.11,2.30,0.00,19.91,24.70,27.77,4.93,26.58,1035.16,2041.96,2584.81,2733.19,2932.77,349.81,357.66,22.76,0000 0000 0000 0000 000000
2014-12-03 02:08:43,0.07,2.30,0.00,19.89,24.68,27.77,4.91,26.53,1035.17,2041.97,2584.01,2732.71,2932.03,349.91,357.70,22.79,0000 0000 0000 0000 000000
2014-12-03 02:13:44,0.09,2.30,0.00,19.82,24.67,27.73,4.93,26.61,1035.16,2041.98,2583.11,2732.02,2931.33,350.43,358.31,22.82,0000 0000 0000 0000 000000
2014-12-03 02:18:46,0.10,2.31,0.00,19.83,24.65,27.74,4.95,26.68,1035.15,2041.98,2582.15,2731.32,2930.77,350.21,357.97,22.85,0000 0000 0000 0000 000000
2014-12-03 02:23:47,0.08,2.31,0.00,19.86,24.65,27.71,4.87,26.52,1035.17,2041.99,2581.27,2730.82,2930.03,349.54,357.46,22.87,0000 0000 0000 0000 000000
2014-12-03 02:28:48,0.10,2.31,0.00,19.84,24.63,27.73,4.88,26.63,1035.17,2041.99,2580.42,2730.05,2929.45,349.98,357.83,22.90,0000 0000 0000 0000 000000
2014-12-03 02:33:49,0.07,2.31,0.00,19.82,24.62,27.69,4.92,26.44,1035.17,2041.99,2579.63,2729.62,2928.97,350.00,357.86,22.93,0000 0000 0000 0000 000000
2014-12-03 02:38:51,0.09,2.32,0.00,19.81,24.61,27.71,4.92,26.63,1035.17,2041.99,2578.66,2728.94,2928.13,349.98,357.97,22.96,0000 0000 0000 0000 000000
2014-12-03 02:43:52,0.09,2.32,0.00,19.78,24.60,27.67,4.92,26.32,1035.18,2041.99,2577.96,2728.14,2927.49,350.58,358.46,22.99,0000 0000 0000 0000 000000
2014-12-03 02:48:53,0.07,2.32,0.00,19.76,24.59,27.70,4.95,26.44,1035.18,2041.99,2577.12,2727.82,2926.85,350.05,357.80,23.02,0000 0000 0000 0000 000000
2014-12-03 02:53:54,0.09,2.32,0.00,19.80,24.57,27.68,4.88,26.68,1035.20,2041.99,2576.43,2727.06,2926.05,349.92,357.91,23.05,0000 0000 0000 0000 000000
2014-12-03 02:58:55,0.10,2.33,0.00,19.79,24.57,27.65,4.85,26.70,1035.20,2041.99,2575.68,2726.55,2925.29,349.15,356.84,23.08,0000 0000 0000 0000 000000
2014-12-03 03:03:57,0.07,2.33,0.00,19.77,24.55,27.63,4.94,26.71,1035.30,2041.99,2574.73,2725.97,2924.72,349.96,358.08,23.11,0000 0000 0000 0000 000000
2014-12-03 03:08:58,0.09,2.33,0.00,19.73,24.54,27.62,4.87,26.71,1035.25,2042.01,2573.87,2725.18,2924.02,349.94,358.29,23.14,0000 0000 0000 0000 000000
2014-12-03 03:13:59,0.10,2.33,0.00,19.61,24.52,27.65,4.93,26.55,1035.22,2042.02,2572.99,2724.59,2923.25,350.09,358.17,23.17,0000 0000 0000 0000 000000
2014-12-03 03:19:01,0.08,2.34,0.00,19.66,24.52,27.62,5.01,26.68,1035.29,2042.02,2572.10,2723.97,2922.55,350.40,358.64,23.20,0000 0000 0000 0000 000000
2014-12-03 03:24:01,0.10,2.34,0.00,19.68,24.50,27.56,4.89,26.63,1035.24,2042.02,2571.17,2723.22,2921.93,349.92,357.86,23.23,0000 0000 0000 0000 000000
2014-12-03 03:29:03,0.11,2.34,0.00,19.68,24.50,27.57,4.93,26.82,1035.21,2042.04,2570.26,2722.65,2921.08,350.34,358.29,23.26,0000 0000 0000 0000 000000
2014-12-03 03:34:04,0.10,2.35,0.00,19.64,24.47,27.58,4.98,26.58,1035.19,2042.09,2569.28,2722.00,2920.46,350.16,358.16,23.29,0000 0000 0000 0000 000000
2014-12-03 03:39:05,0.13,2.35,0.00,19.60,24.46,27.57,4.98,26.76,1035.31,2042.43,2568.44,2721.41,2919.97,350.10,358.25,23.31,0000 0000 0000 0000 000000
2014-12-03 03:44:07,0.12,2.35,0.00,19.63,24.45,27.58,4.95,26.55,1035.48,2042.68,2567.72,2720.92,2919.21,349.69,357.58,23.34,0000 0000 0000 0000 000000
2014-12-03 03:49:08,0.13,2.36,0.00,19.62,24.44,27.57,4.96,26.62,1035.40,2042.79,2566.93,2720.12,2918.50,349.46,357.52,23.37,0000 0000 0000 0000 000000
2014-12-03 03:54:09,0.09,2.36,0.00,19.59,24.42,27.53,4.83,26.63,1035.25,2042.92,2566.05,2719.63,2917.92,349.55,357.72,23.40,0000 0000 0000 0000 000000
2014-12-03 03:59:10,0.09,2.36,0.00,19.60,24.41,27.50,5.00,26.57,1035.22,2042.97,2565.14,2718.99,2917.11,350.20,358.37,23.43,0000 0000 0000 0000 000000
2014-12-03 04:04:12,0.11,2.37,0.00,19.54,24.40,27.49,4.97,26.52,1035.21,2042.97,2564.29,2718.19,2916.62,350.19,358.27,23.46,0000 0000 0000 0000 000000
2014-12-03 04:09:13,0.07,2.37,0.00,19.55,24.39,27.50,4.96,26.44,1035.46,2042.98,2563.38,2717.76,2916.00,350.13,358.23,23.49,0000 0000 0000 0000 000000
2014-12-03 04:14:15,0.09,2.37,0.00,19.56,24.37,27.47,5.00,26.64,1035.64,2042.99,2562.68,2717.07,2915.25,350.15,358.51,23.52,0000 0000 0000 0000 000000
2014-12-03 04:19:16,0.11,2.38,0.00,19.57,24.36,27.47,4.90,26.59,1035.65,2042.99,2561.74,2716.40,2914.55,349.34,357.61,23.55,0000 0000 0000 0000 000000
2014-12-03 04:24:17,0.03,2.38,0.00,19.53,24.35,27.46,4.89,26.42,1035.63,2042.99,2560.96,2715.98,2913.99,349.73,358.19,23.58,0000 0000 0000 0000 000000
2014-12-03 04:29:18,0.12,2.38,0.00,19.46,24.33,27.43,4.87,26.51,1035.43,2042.99,2560.10,2715.17,2913.17,350.06,358.56,23.61,0000 0000 0000 0000 000000
2014-12-03 04:34:19,0.11,2.38,0.00,19.53,24.32,27.41,4.95,26.48,1035.18,2042.99,2559.24,2714.60,2912.45,349.96,358.13,23.64,0000 0000 0000 0000 000000
2014-12-03 04:39:21,0.06,2.39,0.00,19.54,24.31,27.42,4.89,26.55,1035.17,2042.99,2558.38,2714.00,2911.90,349.47,357.60,23.67,0000 0000 0000 0000 000000
2014-12-03 04:44:22,0.10,2.39,0.00,19.52,24.30,27.43,4.85,26.38,1035.17,2042.99,2557.74,2713.28,2911.08,349.75,357.83,23.70,0000 0000 0000 0000 000000
2014-12-03 04:49:23,0.07,2.39,0.00,19.49,24.29,27.42,4.97,26.61,1035.17,2042.99,2556.93,2712.84,2910.49,350.32,358.51,23.72,0000 0000 0000 0000 000000
2014-12-03 04:54:25,0.08,2.39,0.00,19.45,24.27,27.40,4.90,26.52,1035.17,2043.00,2556.08,2712.07,2909.94,349.98,358.29,23.75,0000 0000 0000 0000 000000
2014-12-03 04:59:26,0.11,2.40,0.00,19.49,24.27,27.42,4.98,26.66,1035.17,2043.01,2555.39,2711.59,2909.12,349.72,357.66,23.78,0000 0000 0000 0000 000000
2014-12-03 05:04:27,0.08,2.40,0.00,19.49,24.25,27.40,5.00,26.62,1035.18,2043.02,2554.45,2711.00,2908.50,349.93,357.87,23.81,0000 0000 0000 0000 000000
2014-12-03 05:09:28,0.09,2.40,0.00,19.50,24.25,27.39,4.90,26.61,1035.18,2043.03,2553.74,2710.29,2907.89,349.95,358.19,23.84,0000 0000 0000 0000 000000
2014-12-03 05:14:29,0.10,2.40,0.00,19.43,24.23,27.37,5.06,26.75,1035.21,2043.04,2552.69,2709.77,2907.09,350.28,358.66,23.87,0000 0000 0000 0000 000000
2014-12-03 05:19:31,0.10,2.41,0.00,19.40,24.22,27.37,4.89,26.57,1035.20,2043.10,2551.91,2709.03,2906.56,349.78,358.21,23.90,0000 0000 0000 0000 000000
2014-12-03 05:24:32,0.11,2.41,0.00,19.46,24.21,27.36,5.01,26.52,1035.20,2043.32,2551.07,2708.50,2905.87,350.16,358.35,23.93,0000 0000 0000 0000 000000
2014-12-03 05:29:33,0.07,2.41,0.00,19.47,24.20,27.32,4.89,26.58,1035.40,2043.16,2550.08,2707.83,2905.06,350.06,358.45,23.96,0000 0000 0000 0000 000000
2014-12-03 05:34:35,0.10,2.42,0.00,19.44,24.20,27.32,4.93,26.51,1035.24,2043.13,2549.15,2707.05,2904.32,349.75,358.11,23.99,0000 0000 0000 0000 000000
2014-12-03 05:39:36,0.16,2.42,0.00,19.35,24.18,27.33,4.91,26.73,1035.21,2043.34,2548.15,2706.32,2903.67,349.80,358.53,24.02,0000 0000 0000 0000 000000
2014-12-03 05:44:37,0.11,2.42,0.00,19.40,24.17,27.32,5.03,26.59,1035.20,2043.46,2547.33,2705.76,2902.97,349.98,358.11,24.05,0000 0000 0000 0000 000000
2014-12-03 05:49:38,0.13,2.43,0.00,19.42,24.16,27.31,4.89,26.55,1035.23,2043.65,2546.44,2705.03,2902.14,349.47,358.17,24.08,0000 0000 0000 0000 000000
2014-12-03 05:54:39,0.14,2.43,0.00,19.42,24.15,27.31,4.91,26.57,1035.45,2043.86,2545.48,2704.40,2901.57,349.89,358.35,24.11,0000 0000 0000 0000 000000
2014-12-03 05:59:41,0.09,2.44,0.00,19.40,24.15,27.30,5.02,26.64,1035.45,2043.90,2544.67,2703.77,2900.76,350.11,358.59,24.13,0000 0000 0000 0000 000000
2014-12-03 06:04:42,0.11,2.44,0.00,19.39,24.13,27.29,4.88,26.63,1035.32,2043.93,2543.53,2703.01,2899.99,349.37,357.49,24.16,0000 0000 0000 0000 000000
2014-12-03 06:09:44,0.12,2.44,0.00,19.39,24.12,27.27,4.95,26.80,1035.23,2043.95,2542.54,2702.19,2899.15,349.75,358.13,24.19,0000 0000 0000 0000 000000
2014-12-03 06:14:45,0.12,2.44,0.00,19.42,24.12,27.30,5.02,26.82,1035.18,2043.97,2541.54,2701.59,2898.44,349.90,358.03,24.22,0000 0000 0000 0000 000000
2014-12-03 06:19:47,0.36,2.45,0.00,19.39,24.11,27.25,4.93,26.78,1035.17,2043.99,2538.34,2699.71,2896.46,349.87,358.28,24.25,0000 0000 0000 0000 000000
2014-12-03 06:24:48,0.44,2.47,0.00,19.40,24.10,27.26,4.89,26.77,1035.17,2043.98,2533.16,2696.49,2893.16,349.69,358.07,24.28,0000 0000 0000 0000 000000
2014-12-03 06:29:50,0.09,2.47,0.00,19.39,24.10,27.27,4.90,26.71,1035.17,2043.98,2532.12,2695.87,2892.33,349.75,358.12,24.31,0000 0000 0000 0000 000000
2014-12-03 06:34:51,0.11,2.48,0.00,19.39,24.09,27.25,4.95,26.53,1035.19,2043.99,2531.36,2695.06,2891.61,350.00,358.41,24.34,0000 0000 0000 0000 000000
2014-12-03 06:39:53,0.12,2.48,0.00,19.28,24.07,27.24,4.93,26.73,1035.18,2043.98,2530.39,2694.36,2890.73,349.44,358.04,24.37,0000 0000 0000 0000 000000
2014-12-03 06:44:54,0.08,2.48,0.00,19.34,24.07,27.23,4.92,26.63,1035.18,2043.99,2529.50,2693.76,2890.01,349.92,358.21,24.40,0000 0000 0000 0000 000000
2014-12-03 06:49:55,0.10,2.49,0.00,19.37,24.07,27.24,4.88,26.68,1035.18,2043.99,2528.45,2693.02,2889.26,349.43,357.95,24.43,0000 0000 0000 0000 000000
2014-12-03 06:54:56,0.10,2.49,0.00,19.36,24.05,27.24,4.88,26.63,1035.18,2043.99,2527.81,2692.32,2888.60,349.84,358.29,24.46,0000 0000 0000 0000 000000
2014-12-03 06:59:57,0.14,2.49,0.00,19.28,24.05,27.21,4.89,26.62,1035.20,2043.99,2526.51,2691.50,2887.67,349.47,358.01,24.49,0000 0000 0000 0000 000000
2014-12-03 07:04:59,0.08,2.49,0.00,19.35,24.05,27.22,4.89,26.79,1035.22,2043.99,2525.55,2690.82,2886.91,350.10,358.57,24.52,0000 0000 0000 0000 000000
2014-12-03 07:10:00,0.11,2.50,0.00,19.36,24.04,27.19,4.97,26.64,1035.20,2043.99,2524.57,2690.04,2886.08,350.60,359.01,24.54,0000 0000 0000 0000 000000
2014-12-03 07:15:02,0.12,2.50,0.00,19.34,24.02,27.21,4.92,26.72,1035.23,2043.99,2523.66,2689.37,2885.41,349.50,357.83,24.57,0000 0000 0000 0000 000000
2014-12-03 07:20:03,0.06,2.50,0.00,19.24,24.02,27.19,4.90,26.66,1035.43,2044.00,2522.78,2688.85,2884.78,349.73,358.20,24.60,0000 0000 0000 0000 000000
2014-12-03 07:25:04,0.10,2.51,0.00,19.31,24.02,27.19,4.92,26.68,1035.64,2044.00,2521.78,2688.04,2883.97,349.76,358.30,24.63,0000 0000 0000 0000 000000
2014-12-03 07:30:05,0.14,2.51,0.00,19.33,24.02,27.18,4.99,26.81,1035.65,2044.00,2520.57,2687.18,2883.13,350.24,359.00,24.66,0000 0000 0000 0000 000000
2014-12-03 07:35:06,0.06,2.51,0.00,19.30,24.00,27.17,4.95,26.75,1035.66,2044.00,2519.92,2686.83,2882.43,349.55,358.28,24.69,0000 0000 0000 0000 000000
2014-12-03 07:40:08,0.11,2.52,0.00,19.25,24.00,27.17,4.89,26.72,1035.68,2044.00,2518.83,2686.04,2881.73,349.76,358.65,24.72,0000 0000 0000 0000 000000
2014-12-03 07:45:09,0.09,2.52,0.00,19.31,24.00,27.16,4.94,26.80,1035.76,2044.00,2518.00,2685.30,2881.00,349.93,358.43,24.75,0000 0000 0000 0000 000000
2014-12-03 07:50:10,0.11,2.52,0.00,19.32,23.99,27.16,5.04,26.74,1035.78,2044.01,2517.08,2684.70,2880.18,350.35,358.98,24.78,0000 0000 0000 0000 000000
2014-12-03 07:55:12,0.09,2.53,0.00,19.29,23.98,27.17,4.88,26.64,1035.92,2044.01,2516.19,2684.00,2879.48,349.63,358.19,24.81,0000 0000 0000 0000 000000
2014-12-03 08:00:13,0.10,2.53,0.00,19.29,23.97,27.18,4.93,26.58,1035.87,2044.01,2515.20,2683.22,2878.98,349.71,358.34,24.84,0000 0000 0000 0000 000000
2014-12-03 08:05:14,0.11,2.53,0.00,19.30,23.97,27.17,4.98,26.78,1035.76,2044.01,2514.34,2682.64,2878.17,350.23,358.88,24.87,0000 0000 0000 0000 000000
2014-12-03 08:10:15,0.09,2.54,0.00,19.27,23.97,27.15,4.89,26.64,1035.69,2044.01,2513.32,2681.94,2877.41,350.40,359.12,24.90,0000 0000 0000 0000 000000
2014-12-03 08:15:16,0.11,2.54,0.00,19.25,23.97,27.15,4.92,26.58,1035.68,2044.02,2512.39,2681.15,2876.81,349.54,358.39,24.93,0000 0000 0000 0000 000000
2014-12-03 08:20:17,0.10,2.54,0.00,19.28,23.95,27.15,4.91,26.57,1035.67,2044.02,2511.48,2680.53,2876.01,349.62,358.42,24.95,0000 0000 0000 0000 000000
2014-12-03 08:25:19,0.08,2.54,0.00,19.29,23.95,27.15,5.01,26.77,1035.67,2044.02,2510.70,2679.97,2875.15,350.04,358.87,24.98,0000 0000 0000 0000 000000
2014-12-03 08:30:20,0.12,2.55,0.00,19.21,23.95,27.16,4.92,26.68,1035.71,2044.05,2509.82,2679.18,2874.49,349.65,358.33,25.01,0000 0000 0000 0000 000000
2014-12-03 08:35:21,0.09,2.55,0.00,19.23,23.94,27.14,4.94,26.60,1035.74,2044.03,2508.90,2678.50,2873.87,349.62,358.22,25.04,0000 0000 0000 0000 000000
2014-12-03 08:40:22,0.07,2.55,0.00,19.28,23.93,27.16,5.01,26.86,1035.70,2044.03,2508.04,2677.95,2873.06,350.46,359.24,25.07,0000 0000 0000 0000 000000
2014-12-03 08:45:23,0.13,2.56,0.00,19.28,23.92,27.13,4.96,26.73,1035.69,2044.03,2507.17,2677.12,2872.23,350.36,359.14,25.10,0000 0000 0000 0000 000000
2014-12-03 08:50:24,0.11,2.56,0.00,19.24,23.92,27.11,4.94,26.68,1035.69,2044.04,2506.11,2676.49,2871.66,349.87,358.79,25.13,0000 0000 0000 0000 000000
2014-12-03 08:55:26,0.08,2.56,0.00,19.25,23.92,27.12,5.00,26.75,1035.67,2044.10,2505.12,2675.88,2870.94,349.98,358.75,25.16,0000 0000 0000 0000 000000
2014-12-03 09:00:26,0.12,2.57,0.00,19.26,23.92,27.10,5.07,26.90,1035.67,2044.14,2504.25,2675.07,2870.10,350.12,358.83,25.19,0000 0000 0000 0000 000000
2014-12-03 09:05:28,0.11,2.57,0.00,19.25,23.90,27.08,4.78,26.62,1035.66,2044.09,2503.36,2674.34,2869.34,349.69,358.37,25.22,0000 0000 0000 0000 000000
2014-12-03 09:10:29,0.10,2.57,0.00,19.21,23.90,27.11,4.95,26.93,1035.66,2044.23,2502.46,2673.88,2868.81,349.85,358.59,25.25,0000 0000 0000 0000 000000
2014-12-03 09:15:30,0.12,2.58,0.00,19.23,23.90,27.09,4.97,26.84,1035.66,2044.37,2501.59,2673.07,2868.04,349.74,358.59,25.28,0000 0000 0000 0000 000000
2014-12-03 09:20:31,0.15,2.58,0.00,19.22,23.89,27.05,4.94,26.83,1035.66,2044.56,2500.72,2672.46,2867.26,349.84,358.55,25.31,0000 0000 0000 0000 000000
2014-12-03 09:25:33,0.07,2.58,0.00,19.19,23.88,27.07,4.94,26.78,1035.66,2044.56,2499.78,2671.87,2866.55,349.85,358.68,25.34,0000 0000 0000 0000 000000
2014-12-03 09:30:34,0.10,2.59,0.00,19.20,23.87,27.08,5.03,26.88,1035.66,2044.52,2498.89,2671.06,2865.93,350.19,359.03,25.36,0000 0000 0000 0000 000000
2014-12-03 09:35:35,0.13,2.59,0.00,19.22,23.87,27.07,4.98,26.77,1035.66,2044.65,2497.85,2670.38,2865.10,350.08,358.86,25.39,0000 0000 0000 0000 000000
2014-12-03 09:40:36,0.10,2.59,0.00,19.24,23.87,27.07,4.97,26.88,1035.66,2044.59,2496.91,2669.76,2864.25,349.24,357.90,25.42,0000 0000 0000 0000 000000
2014-12-03 09:45:38,0.12,2.60,0.00,19.20,23.87,27.05,5.02,26.77,1035.66,2044.89,2496.05,2669.04,2863.85,350.23,359.36,25.45,0000 0000 0000 0000 000000
2014-12-03 09:50:39,0.12,2.60,0.00,19.23,23.86,27.06,4.96,26.82,1035.66,2044.94,2495.40,2668.43,2863.05,350.46,359.18,25.48,0000 0000 0000 0000 000000
2014-12-03 09:55:40,0.06,2.60,0.00,19.22,23.85,27.08,4.95,26.79,1035.66,2044.96,2494.80,2667.96,2862.29,349.83,358.55,25.51,0000 0000 0000 0000 000000
2014-12-03 10:00:41,0.10,2.61,0.00,19.20,23.85,27.09,4.92,26.68,1035.66,2044.94,2493.95,2667.12,2861.77,350.18,359.00,25.54,0000 0000 0000 0000 000000
2014-12-03 10:05:42,0.10,2.61,0.00,19.21,23.85,27.08,4.93,26.71,1035.66,2044.96,2493.05,2666.67,2861.02,350.13,358.93,25.57,0000 0000 0000 0000 000000
2014-12-03 10:10:44,0.09,2.61,0.00,19.22,23.85,27.06,4.86,26.77,1035.66,2044.97,2492.16,2665.98,2860.26,349.68,358.45,25.60,0000 0000 0000 0000 000000
2014-12-03 10:15:45,0.11,2.61,0.00,19.18,23.85,27.05,5.00,26.75,1035.66,2044.95,2491.36,2665.18,2859.57,350.07,358.88,25.63,0000 0000 0000 0000 000000
2014-12-03 10:20:46,0.10,2.62,0.00,19.21,23.84,27.06,4.99,26.73,1035.66,2044.95,2490.15,2664.48,2858.91,349.95,358.75,25.66,0000 0000 0000 0000 000000
2014-12-03 10:25:47,0.09,2.62,0.00,19.21,23.82,27.02,4.98,26.73,1035.67,2044.95,2489.28,2663.93,2858.07,349.77,358.53,25.69,0000 0000 0000 0000 000000
2014-12-03 10:30:49,0.12,2.62,0.00,19.21,23.82,27.05,4.95,26.77,1035.67,2044.98,2488.48,2663.13,2857.36,349.73,358.44,25.72,0000 0000 0000 0000 000000
2014-12-03 10:35:50,0.10,2.63,0.00,19.14,23.82,27.05,4.89,26.64,1035.80,2044.99,2487.70,2662.56,2856.68,349.27,358.15,25.75,0000 0000 0000 0000 000000
2014-12-03 10:40:52,0.08,2.63,0.00,19.17,23.82,27.01,5.00,26.72,1035.89,2044.98,2486.56,2661.92,2855.99,350.45,359.27,25.77,0000 0000 0000 0000 000000
2014-12-03 10:45:53,0.11,2.63,0.00,19.19,23.82,27.02,5.00,26.59,1036.02,2044.98,2485.73,2661.13,2855.18,350.27,359.19,25.80,0000 0000 0000 0000 000000
2014-12-03 10:50:54,0.09,2.63,0.00,19.14,23.80,26.99,4.92,26.75,1036.14,2044.99,2484.96,2660.59,2854.56,349.48,358.51,25.83,0000 0000 0000 0000 000000
2014-12-03 10:55:55,0.06,2.64,0.00,19.14,23.80,27.00,4.95,26.71,1036.15,2044.99,2484.07,2659.99,2853.92,349.93,359.17,25.86,0000 0000 0000 0000 000000
2014-12-03 11:00:56,0.12,2.64,0.00,19.17,23.80,27.02,5.04,26.72,1036.15,2044.98,2483.11,2659.18,2853.09,350.10,358.99,25.89,0000 0000 0000 0000 000000
2014-12-03 11:05:58,0.12,2.64,0.00,19.14,23.80,26.99,5.00,26.81,1036.14,2044.98,2482.15,2658.52,2852.30,350.17,359.21,25.92,0000 0000 0000 0000 000000
2014-12-03 11:10:59,0.07,2.65,0.00,19.10,23.79,26.99,5.00,26.73,1036.15,2044.99,2481.36,2657.96,2851.65,350.03,359.22,25.95,0000 0000 0000 0000 000000
2014-12-03 11:16:00,0.10,2.65,0.00,19.13,23.79,26.97,4.90,26.53,1036.15,2044.99,2480.59,2657.14,2850.93,349.85,358.81,25.98,0000 0000 0000 0000 000000
2014-12-03 11:21:02,0.12,2.65,0.00,19.13,23.77,27.00,4.84,26.64,1036.15,2044.99,2479.64,2656.54,2850.08,349.26,358.26,26.01,0000 0000 0000 0000 000000
2014-12-03 11:26:03,0.09,2.66,0.00,19.03,23.77,27.01,4.90,26.67,1036.15,2044.98,2478.65,2655.91,2849.34,349.39,358.55,26.04,0000 0000 0000 0000 000000
2014-12-03 11:31:04,0.09,2.66,0.00,19.11,23.77,27.00,4.92,26.68,1036.15,2044.99,2477.74,2655.10,2848.85,350.44,359.26,26.07,0000 0000 0000 0000 000000
2014-12-03 11:36:06,0.11,2.66,0.00,19.13,23.77,26.98,5.00,26.73,1036.15,2044.99,2476.87,2654.46,2848.06,350.39,359.60,26.10,0000 0000 0000 0000 000000
2014-12-03 11:41:07,0.08,2.67,0.00,19.11,23.77,26.96,5.04,26.93,1036.13,2044.99,2476.00,2653.89,2847.23,350.17,359.44,26.13,0000 0000 0000 0000 000000
2014-12-03 11:46:08,0.12,2.67,0.00,19.13,23.76,27.01,4.98,26.69,1036.14,2044.99,2475.12,2653.07,2846.47,350.26,359.19,26.16,0000 0000 0000 0000 000000
2014-12-03 11:51:09,0.12,2.67,0.00,19.13,23.75,26.99,4.98,26.75,1036.15,2044.99,2474.21,2652.29,2845.67,350.43,359.51,26.18,0000 0000 0000 0000 000000
2014-12-03 11:56:11,0.12,2.68,0.00,19.05,23.75,26.99,4.93,26.68,1036.15,2044.99,2473.20,2651.57,2844.79,349.88,359.06,26.21,0000 0000 0000 0000 000000
2014-12-03 12:01:12,0.09,2.68,0.00,19.07,23.75,26.97,5.07,26.77,1036.15,2044.99,2472.18,2650.85,2844.02,350.98,360.04,26.24,0000 0000 0000 0000 000000
2014-12-03 12:06:13,0.11,2.68,0.00,19.09,23.75,26.95,5.01,26.73,1036.17,2044.99,2471.25,2650.06,2843.22,350.09,359.32,26.27,0000 0000 0000 0000 000000
2014-12-03 12:11:14,0.12,2.69,0.00,19.08,23.74,26.95,5.05,26.77,1036.37,2044.99,2470.36,2649.40,2842.54,350.18,359.56,26.30,0000 0000 0000 0000 000000
2014-12-03 12:16:16,0.09,2.69,0.00,19.06,23.72,26.98,4.97,26.73,1036.59,2044.99,2469.35,2648.81,2841.77,349.80,359.34,26.33,0000 0000 0000 0000 000000
2014-12-03 12:21:17,0.09,2.69,0.00,19.09,23.72,26.97,4.95,26.79,1036.59,2044.99,2468.54,2648.02,2840.98,350.33,359.27,26.36,0000 0000 0000 0000 000000
2014-12-03 12:26:18,0.11,2.70,0.00,19.07,23.72,26.96,4.94,26.74,1036.60,2044.99,2467.71,2647.26,2840.15,350.04,359.27,26.39,0000 0000 0000 0000 000000
2014-12-03 12:31:20,0.11,2.70,0.00,19.04,23.72,26.98,4.90,26.74,1036.50,2044.99,2466.75,2646.62,2839.36,350.18,359.35,26.42,0000 0000 0000 0000 000000
2014-12-03 12:36:21,0.09,2.70,0.00,19.06,23.70,26.93,5.01,26.88,1036.48,2044.99,2465.71,2645.95,2838.76,350.48,359.68,26.45,0000 0000 0000 0000 000000
2014-12-03 12:41:22,0.10,2.71,0.00,19.07,23.70,26.92,4.99,27.01,1036.48,2044.99,2464.82,2645.10,2837.94,350.15,359.08,26.48,0000 0000 0000 0000 000000
2014-12-03 12:46:23,0.11,2.71,0.00,18.98,23.70,26.93,4.99,26.93,1036.54,2044.99,2463.97,2644.49,2837.11,350.30,359.69,26.51,0000 0000 0000 0000 000000
2014-12-03 12:51:25,0.10,2.71,0.00,19.02,23.70,26.92,4.95,27.01,1036.62,2045.00,2462.88,2643.87,2836.45,349.82,359.27,26.54,0000 0000 0000 0000 000000
2014-12-03 12:56:26,0.11,2.71,0.00,19.05,23.69,26.89,4.86,26.79,1036.61,2045.02,2461.86,2643.05,2835.77,349.87,359.17,26.57,0000 0000 0000 0000 000000
2014-12-03 13:01:27,0.11,2.72,0.00,18.96,23.67,26.87,4.91,26.77,1036.64,2045.01,2460.88,2642.31,2834.99,350.33,359.89,26.60,0000 0000 0000 0000 000000